カタログに戻る

STARLINK-2695

運用中通信VLEO
NORAD 48644·PAYLOAD·🇺🇸 United States

打ち上げ May 26, 2021 から Cape Canaveral Space Force Station

Loading…

次のパス (今後24時間)

TLE

最新Source: CelesTrak SupGP

元期: Sep 14, 2026, 13:21 UTC

1 48644C 21044G   26257.55673611  .00034565  00000+0  11116-2 0  2574
2 48644  53.1582 315.1048 0001327  71.8321  34.9132 15.31680674    13

AllMySatでSTARLINK-2695をリアルタイム追跡

Download on the App Store